Wind_Speed
32 32 32 33 33 32 30 27 24 24 24 24 24 22 21 20 19 19 18 16 16 16 15 14 13 12 12 11 11 10 9 9 8 8 7 7 6 6 6 6 6 5 5 5 5 5 5 6 6
34 34 34 35 35 33 30 28 26 26 26 26 25 24 23 22 21 20 19 18 18 17 17 16 15 14 14 13 13 12 11 11 10 10 9 9 8 8 8 7 7 7 7 6 6 7 7 7 8
35 35 36 36 36 34 31 29 29 28 28 27 27 26 25 23 22 21 21 20 20 19 18 18 17 16 16 15 15 14 13 13 12 11 11 10 10 10 9 9 9 8 8 8 8 8 9 9 9
37 37 38 37 36 34 32 31 31 30 29 29 28 28 27 25 24 23 22 22 21 21 20 19 19 18 18 17 16 16 15 15 14 13 12 12 12 12 11 11 10 10 10 10 10 10 10 11 11
39 39 39 38 36 34 33 33 32 32 31 31 30 29 28 27 26 25 24 24 23 22 21 21 20 20 19 18 18 17 17 16 16 15 14 13 13 13 12 12 12 12 12 11 11 12 12 13 13
40 41 40 39 36 34 34 34 34 34 33 32 32 31 29 29 28 27 26 25 25 24 23 23 22 21 21 20 19 19 18 18 17 17 16 15 15 14 14 14 14 14 14 14 14 14 14 15 15
42 42 41 39 37 36 35 35 35 35 35 34 33 32 31 30 29 29 28 27 27 26 25 24 24 22 22 22 21 20 20 19 19 18 17 17 16 16 16 16 16 16 16 16 16 16 16 17 17
43 43 43 41 38 37 36 36 36 36 36 35 35 34 32 31 30 30 30 29 28 27 27 26 25 24 23 23 23 22 21 21 20 20 19 19 18 18 17 17 18 18 18 18 18 18 18 18 18
44 45 43 41 39 38 37 37 37 37 37 36 36 35 33 33 32 31 31 30 29 28 28 27 26 25 25 24 24 23 23 22 22 21 21 21 20 19 19 19 19 19 19 19 19 19 19 19 20
46 46 43 41 40 39 38 38 38 38 37 37 37 36 35 34 33 32 32 31 30 30 29 28 28 27 26 26 25 25 24 24 24 23 22 22 21 21 21 21 20 20 20 20 20 21 21 21 21
47 46 44 42 41 40 39 39 39 38 38 37 37 37 36 35 34 34 33 32 31 31 30 30 29 29 28 27 27 26 26 26 25 24 24 23 23 23 23 22 22 22 21 21 22 22 22 23 23
47 46 44 43 42 41 41 40 40 40 38 38 38 38 37 36 36 35 34 34 33 32 31 31 30 30 29 29 29 28 28 27 27 26 26 26 25 25 25 24 24 24 23 23 24 24 24 24 24
48 46 45 44 43 43 42 42 42 40 39 39 39 38 38 38 37 36 35 35 34 33 32 32 31 31 30 30 30 29 29 29 29 28 28 27 27 27 26 26 25 25 25 25 25 25 25 26 26
48 47 47 46 45 45 44 44 44 42 41 40 40 40 40 39 38 37 36 36 35 35 34 33 32 32 32 31 30 30 30 30 29 29 29 28 28 28 27 27 27 26 26 26 26 27 27 27 28
48 48 48 47 47 46 46 46 44 43 43 41 41 41 40 40 39 38 38 37 36 36 35 34 34 33 33 32 32 31 31 31 30 30 30 29 29 29 29 28 28 28 28 28 28 28 29 29 29
49 49 49 48 48 47 47 46 45 45 44 43 42 41 41 40 40 40 39 39 38 37 37 36 36 35 34 33 33 33 33 32 32 31 31 31 30 30 30 29 29 29 29 29 30 30 31 31 32
50 50 49 48 48 48 48 46 45 45 45 44 43 43 42 41 40 41 40 40 39 39 38 37 37 36 36 35 35 34 34 33 33 33 32 32 32 31 31 31 30 30 31 31 32 33 33 33 33
49 48 48 47 47 47 47 46 45 45 45 45 45 44 43 41 40 41 41 41 41 40 39 38 37 37 37 36 36 36 35 35 34 34 34 33 33 33 33 32 32 32 33 33 34 35 35 35 35
48 48 48 47 47 47 47 46 46 46 46 46 45 44 44 43 42 42 41 41 41 41 40 39 39 38 38 37 37 36 36 36 36 35 34 34 34 34 34 34 34 34 34 35 35 36 36 36 36
47 48 48 48 47 47 47 46 46 46 45 45 45 45 44 44 43 42 42 42 42 41 40 40 40 39 39 38 38 37 37 37 37 36 35 35 35 34 34 34 34 35 35 36 36 36 36 36 37
45 47 48 48 48 47 47 47 47 46 45 45 45 45 45 44 43 42 42 43 42 42 41 41 41 40 40 39 39 38 38 38 37 37 36 36 36 35 35 36 36 36 36 37 37 37 37 37 38
43 45 46 48 48 48 48 48 48 46 46 45 44 44 43 43 43 43 42 43 43 43 42 42 41 41 40 40 40 39 38 38 38 37 37 37 37 37 37 37 37 37 37 38 38 39 39 39 39
41 42 44 46 47 49 48 49 48 47 46 45 44 44 44 43 43 43 43 42 43 44 44 43 42 41 41 41 40 40 39 39 38 38 38 38 38 38 38 38 38 38 39 40 40 40 40 40 41
39 40 42 44 47 49 48 48 49 47 46 46 46 45 45 44 44 44 44 43 44 45 45 44 43 42 42 42 41 41 41 40 40 39 39 39 39 39 39 39 39 39 39 40 40 41 42 42 42
38 39 41 42 45 48 47 48 49 46 45 46 46 46 46 45 45 44 44 44 44 45 45 44 44 44 43 42 42 42 42 41 41 41 40 41 40 40 40 40 40 40 40 41 41 42 43 43 43
37 38 39 41 43 45 46 46 47 45 44 45 46 46 46 46 46 45 45 45 45 45 45 45 44 44 44 44 43 43 43 42 42 42 42 42 42 41 41 41 42 42 42 42 42 43 43 44 44
36 36 37 39 41 42 44 44 44 44 43 43 44 45 45 45 45 45 45 45 45 45 46 46 45 45 45 44 44 44 43 43 43 43 42 42 42 42 42 42 42 43 43 44 44 44 44 44 44
36 35 35 37 38 40 42 42 42 42 42 42 43 43 44 44 44 44 45 45 45 45 46 46 46 45 45 45 45 45 44 44 44 43 43 43 43 43 43 44 44 44 44 45 44 45 45 45 45
35 36 36 37 38 38 40 40 40 39 40 40 41 41 42 43 44 44 45 45 45 46 46 46 46 45 46 45 45 45 45 44 44 44 44 44 44 44 44 45 45 45 46 46 46 46 46 45 45
33 35 36 37 37 37 38 38 37 37 37 38 39 40 40 42 42 43 44 44 45 45 46 46 46 46 46 46 46 45 45 45 45 45 45 45 45 45 45 45 46 46 47 47 47 47 46 45 45
Wind_Direction
232 232 232 233 234 234 234 233 232 231 232 233 234 235 235 235 234 236 235 235 233 232 231 230 228 228 229 228 228 230 231 232 232 233 235 237 237 235 236 239 242 249 259 269 276 281 285 289 292
233 233 233 234 234 235 235 234 233 232 232 233 235 235 235 235 236 237 237 236 235 235 233 232 232 232 233 232 232 234 234 235 236 238 241 244 245 244 245 247 250 255 261 266 273 277 281 285 290
233 234 234 235 235 235 235 234 233 233 233 234 235 235 236 236 236 237 237 237 237 236 236 236 236 236 236 235 235 235 236 236 238 240 243 246 248 249 249 251 255 257 260 265 271 276 279 282 285
234 235 235 235 235 235 235 234 233 233 233 234 235 236 236 236 236 237 237 237 237 237 237 237 236 237 237 237 237 237 237 238 239 241 245 247 249 251 252 253 255 259 262 265 271 276 277 280 283
235 235 236 236 236 236 236 235 234 234 234 235 236 236 236 236 236 237 237 237 237 237 237 237 236 236 236 236 237 238 239 240 241 242 245 247 250 252 254 255 256 261 265 268 272 275 276 278 281
235 236 237 236 236 236 236 236 234 234 235 235 235 235 235 236 237 237 237 238 238 237 236 236 236 236 236 236 237 238 239 240 242 244 246 248 252 255 256 257 259 262 266 269 271 273 275 277 279
235 236 237 236 235 235 235 235 234 234 234 234 235 235 235 236 237 237 237 238 238 238 237 236 236 237 238 238 238 239 240 241 242 245 247 249 252 254 257 259 261 263 266 269 271 273 274 275 278
236 236 236 236 235 235 234 234 234 234 234 235 235 235 235 236 236 236 236 237 238 238 237 236 236 237 238 239 239 240 241 242 244 246 248 250 252 255 258 261 263 265 266 269 271 273 274 275 277
235 236 236 235 234 233 233 233 233 233 234 234 234 235 235 235 235 235 236 236 237 237 237 237 237 237 238 239 240 241 243 244 246 247 249 251 254 257 260 262 264 265 267 269 271 273 274 276 278
235 235 235 234 233 232 231 232 232 233 233 233 233 234 234 235 235 235 236 236 236 236 236 236 236 237 238 239 241 242 244 245 247 249 251 253 256 259 262 263 265 267 268 269 271 274 275 277 278
234 234 234 233 232 231 230 231 231 232 232 232 233 233 233 234 235 235 235 236 236 236 236 236 236 237 238 240 241 243 244 246 247 249 251 253 256 260 262 264 266 267 268 271 273 274 275 276 278
233 233 233 232 231 231 230 230 230 231 232 232 233 233 233 234 234 235 236 236 237 237 236 236 236 237 239 240 242 243 245 246 247 249 252 255 258 261 263 265 266 268 269 272 273 275 275 277 278
232 232 232 232 231 231 230 230 230 230 231 232 233 233 233 234 234 235 235 236 236 236 236 236 236 237 239 240 241 243 245 246 248 250 252 255 258 261 263 264 266 268 270 271 273 275 277 277 278
231 231 231 231 231 230 230 230 230 230 231 232 233 234 234 234 235 235 235 235 236 236 236 236 237 237 239 240 241 243 245 247 248 250 253 255 257 260 261 263 265 267 270 271 273 276 277 278 279
230 230 230 231 231 231 231 231 231 231 232 232 233 234 234 234 234 234 234 234 235 235 236 236 237 238 239 240 242 243 245 247 249 251 253 255 257 259 261 263 265 268 270 271 273 276 277 279 280
230 230 230 231 232 232 232 232 232 232 232 233 233 233 234 234 234 233 234 234 234 235 235 236 238 239 240 241 243 244 245 247 249 252 254 256 258 259 261 263 265 268 269 272 275 277 278 280 280
230 231 231 231 232 232 233 232 231 232 232 233 233 234 234 234 234 233 234 234 235 235 236 237 238 239 241 242 243 244 246 248 250 252 254 256 258 260 262 263 265 268 270 272 274 277 278 279 280
231 232 232 232 232 233 233 232 231 232 233 233 233 233 233 233 234 234 233 234 234 235 235 236 238 239 240 242 243 244 246 248 250 252 254 257 259 260 261 263 265 268 271 273 275 277 278 279 280
231 232 232 231 230 232 232 232 231 232 233 233 233 233 233 233 234 234 233 234 234 235 235 236 237 239 240 242 243 245 246 248 250 252 254 256 259 260 261 264 266 269 271 274 276 277 278 279 280
231 231 230 230 230 232 232 231 231 232 232 232 233 233 233 233 234 235 234 233 234 234 235 236 237 239 241 243 244 245 246 248 251 253 254 256 258 260 262 264 267 269 272 274 276 277 278 279 280
231 231 230 230 230 232 233 232 230 231 232 232 232 233 233 233 234 235 235 234 234 234 235 236 238 239 241 242 244 246 247 249 251 253 255 256 258 261 262 265 267 270 272 274 275 277 278 279 280
231 230 231 230 231 232 233 233 230 231 232 232 232 233 233 233 233 234 235 235 235 235 235 236 237 239 240 242 243 245 246 249 251 253 255 257 259 261 263 265 268 270 271 273 275 277 278 279 280
231 231 232 232 232 234 234 235 232 231 232 232 233 233 233 233 233 234 235 236 236 235 235 236 237 239 240 242 244 246 247 249 251 253 255 257 259 261 264 266 269 271 272 274 276 277 278 279 280
231 231 232 232 233 235 234 236 234 232 232 232 232 233 233 234 234 235 235 236 236 236 236 236 237 239 240 242 244 246 249 250 252 253 255 257 260 262 265 268 269 271 273 274 276 277 278 279 280
229 230 230 231 232 235 233 235 236 233 232 232 233 233 234 235 235 236 236 236 237 236 237 237 238 240 241 243 245 247 249 252 253 255 257 258 261 263 265 267 268 270 273 275 276 277 279 279 280
228 230 231 233 233 235 235 235 235 234 233 233 233 234 235 236 236 236 236 237 237 237 237 237 239 240 242 243 246 248 250 252 254 255 257 259 261 263 265 267 268 270 272 275 276 278 279 279 281
227 229 232 235 236 236 236 236 235 234 233 233 234 235 235 235 236 237 237 237 238 238 238 238 239 240 242 244 246 248 250 252 254 256 258 260 262 263 265 267 269 270 273 274 276 278 279 280 281
229 228 228 231 235 237 238 237 237 235 235 235 235 235 235 236 236 236 236 237 237 238 238 238 239 241 242 244 246 248 250 252 254 256 258 260 262 264 266 268 269 270 273 275 276 277 278 280 280
228 228 229 230 234 236 238 239 238 239 238 238 237 236 236 236 237 237 236 237 237 238 238 238 239 241 242 244 247 249 250 252 253 256 258 260 262 265 267 268 270 271 273 274 276 277 278 279 280
230 230 230 231 233 235 238 239 238 239 239 239 238 237 237 237 237 237 237 237 238 238 238 239 239 241 243 245 247 249 250 252 254 256 258 261 263 265 267 269 271 272 272 273 275 277 278 279 280
Height
5831 5833 5836 5838 5841 5843 5847 5851 5854 5856 5858 5859 5861 5863 5866 5868 5870 5873 5873 5873 5874 5875 5876 5877 5878 5879 5880 5881 5882 5882 5883 5884 5884 5885 5885 5885 5885 5885 5885 5885 5885 5885 5885 5885 5885 5885 5885 5884 5884
5825 5828 5830 5833 5835 5838 5843 5847 5849 5851 5853 5855 5857 5859 5862 5864 5866 5867 5868 5870 5871 5873 5874 5875 5876 5877 5878 5879 5880 5881 5882 5882 5883 5883 5884 5884 5884 5884 5884 5884 5884 5884 5884 5884 5884 5884 5883 5883 5883
5819 5821 5825 5827 5830 5834 5838 5842 5844 5846 5848 5851 5853 5855 5857 5860 5862 5863 5865 5867 5868 5870 5871 5872 5873 5875 5876 5877 5878 5879 5880 5880 5881 5882 5882 5882 5882 5883 5883 5883 5883 5883 5883 5882 5882 5882 5882 5881 5881
5812 5815 5818 5821 5825 5829 5832 5836 5838 5841 5843 5846 5848 5851 5853 5856 5858 5860 5861 5863 5865 5866 5868 5869 5870 5872 5873 5874 5875 5876 5877 5878 5879 5880 5880 5880 5881 5881 5881 5881 5881 5881 5881 5881 5880 5880 5880 5879 5879
5805 5808 5811 5815 5819 5823 5826 5829 5832 5835 5837 5840 5843 5846 5848 5851 5853 5855 5857 5859 5861 5862 5864 5866 5867 5868 5870 5871 5872 5873 5875 5876 5876 5877 5878 5878 5878 5879 5879 5879 5879 5879 5879 5879 5878 5878 5878 5877 5877
5798 5801 5805 5809 5813 5817 5820 5822 5826 5828 5831 5834 5837 5840 5843 5846 5848 5851 5853 5855 5856 5858 5860 5862 5863 5865 5867 5868 5869 5871 5872 5873 5874 5874 5875 5875 5876 5876 5876 5876 5877 5877 5877 5876 5876 5876 5875 5875 5874
5790 5794 5797 5802 5806 5810 5813 5816 5819 5822 5825 5828 5831 5835 5838 5840 5843 5845 5848 5850 5852 5854 5856 5858 5859 5861 5863 5864 5866 5867 5868 5870 5870 5871 5872 5873 5873 5873 5874 5874 5874 5874 5874 5874 5873 5873 5872 5872 5871
5781 5786 5789 5794 5799 5803 5806 5809 5812 5815 5818 5821 5825 5828 5832 5835 5837 5840 5842 5845 5847 5849 5851 5853 5855 5857 5859 5860 5862 5863 5865 5866 5867 5868 5869 5869 5870 5870 5870 5871 5871 5871 5870 5870 5870 5869 5869 5868 5868
5772 5778 5781 5787 5791 5795 5798 5801 5804 5807 5811 5814 5818 5822 5826 5828 5831 5834 5837 5839 5842 5844 5846 5848 5850 5852 5854 5856 5858 5859 5861 5862 5863 5864 5865 5865 5866 5866 5867 5867 5867 5867 5867 5867 5866 5866 5865 5865 5864
5763 5768 5775 5779 5783 5787 5790 5793 5797 5800 5804 5807 5811 5815 5818 5822 5825 5828 5831 5834 5836 5839 5841 5843 5845 5847 5849 5851 5853 5855 5856 5857 5858 5859 5860 5861 5862 5863 5863 5863 5863 5863 5863 5863 5862 5862 5861 5861 5860
5754 5761 5766 5770 5774 5779 5782 5786 5789 5793 5797 5801 5804 5808 5811 5814 5818 5821 5825 5828 5830 5833 5835 5838 5840 5842 5844 5846 5848 5850 5851 5852 5854 5855 5856 5857 5858 5858 5859 5859 5859 5859 5859 5858 5858 5858 5857 5856 5855
5746 5752 5756 5761 5766 5770 5774 5778 5782 5786 5790 5793 5796 5800 5804 5807 5811 5815 5818 5821 5824 5827 5830 5832 5834 5837 5839 5841 5843 5844 5846 5847 5849 5850 5851 5852 5853 5853 5854 5854 5854 5854 5854 5854 5853 5853 5852 5852 5851
5736 5742 5747 5752 5756 5761 5766 5770 5774 5778 5782 5786 5789 5793 5796 5800 5804 5808 5811 5814 5818 5821 5823 5826 5828 5831 5833 5835 5837 5839 5840 5842 5843 5845 5846 5847 5848 5848 5849 5849 5849 5849 5849 5849 5848 5848 5847 5847 5846
5727 5732 5737 5742 5747 5752 5757 5761 5766 5771 5774 5778 5782 5785 5789 5793 5797 5800 5804 5807 5811 5814 5817 5820 5822 5825 5827 5829 5831 5833 5835 5836 5838 5839 5840 5841 5842 5843 5843 5844 5844 5844 5844 5843 5843 5842 5842 5841 5840
5717 5722 5727 5732 5738 5743 5747 5753 5759 5763 5766 5770 5774 5778 5781 5785 5789 5793 5797 5800 5803 5807 5810 5813 5816 5818 5821 5823 5825 5827 5828 5830 5832 5833 5834 5835 5836 5837 5838 5838 5838 5838 5838 5837 5837 5837 5836 5835 5834
5706 5711 5717 5724 5728 5733 5739 5745 5750 5753 5757 5762 5766 5769 5773 5777 5781 5785 5789 5792 5796 5800 5803 5806 5809 5812 5814 5817 5819 5821 5822 5824 5825 5827 5828 5829 5830 5831 5831 5832 5832 5832 5832 5831 5831 5831 5830 5829 5828
5695 5702 5708 5715 5719 5724 5729 5736 5741 5744 5748 5753 5757 5761 5765 5769 5773 5777 5781 5785 5788 5792 5796 5799 5802 5805 5807 5810 5812 5814 5816 5817 5819 5820 5822 5823 5824 5824 5825 5826 5826 5825 5825 5825 5824 5824 5823 5822 5820
5688 5694 5699 5705 5709 5714 5719 5726 5731 5735 5739 5744 5748 5752 5757 5761 5765 5769 5773 5776 5780 5784 5788 5791 5794 5797 5800 5802 5805 5807 5809 5811 5812 5813 5815 5816 5817 5818 5818 5819 5819 5819 5818 5818 5817 5816 5815 5814 5813
5678 5683 5689 5694 5699 5704 5709 5715 5721 5725 5729 5734 5739 5743 5748 5753 5757 5761 5765 5768 5772 5776 5780 5784 5787 5790 5792 5795 5797 5799 5802 5803 5805 5806 5807 5808 5810 5810 5811 5812 5812 5811 5811 5810 5809 5808 5807 5806 5804
5667 5672 5678 5684 5690 5694 5700 5705 5710 5715 5720 5725 5730 5734 5739 5744 5748 5753 5757 5760 5764 5768 5772 5775 5779 5782 5785 5787 5790 5792 5794 5796 5797 5798 5800 5801 5802 5803 5804 5804 5804 5804 5803 5802 5801 5800 5799 5798 5796
5658 5663 5669 5675 5680 5685 5690 5695 5701 5706 5711 5716 5721 5726 5730 5735 5740 5744 5748 5752 5756 5760 5763 5767 5770 5773 5776 5779 5782 5784 5786 5788 5790 5791 5792 5793 5794 5795 5796 5796 5796 5796 5795 5794 5793 5792 5791 5790 5788
5649 5655 5660 5666 5671 5675 5680 5685 5691 5696 5701 5707 5712 5717 5722 5726 5731 5735 5739 5743 5747 5751 5754 5758 5762 5765 5768 5771 5774 5776 5778 5780 5782 5783 5784 5785 5786 5787 5787 5787 5787 5787 5787 5786 5785 5783 5782 5780 5779
5641 5647 5652 5656 5660 5665 5670 5675 5682 5687 5692 5698 5703 5708 5712 5717 5721 5726 5730 5734 5738 5742 5745 5749 5753 5756 5759 5762 5765 5767 5770 5772 5773 5775 5776 5777 5778 5778 5779 5779 5779 5779 5778 5777 5776 5774 5772 5771 5769
5632 5638 5642 5646 5650 5655 5661 5665 5671 5678 5684 5689 5694 5698 5703 5707 5712 5716 5720 5724 5728 5732 5736 5740 5744 5747 5750 5754 5756 5759 5761 5763 5765 5766 5768 5768 5769 5770 5770 5770 5770 5769 5769 5768 5766 5765 5763 5761 5760
5624 5629 5633 5636 5640 5645 5652 5656 5662 5669 5674 5679 5684 5689 5693 5697 5702 5706 5711 5715 5719 5723 5727 5731 5735 5738 5741 5744 5747 5750 5752 5754 5756 5757 5758 5759 5760 5761 5761 5761 5761 5760 5759 5758 5757 5755 5753 5751 5749
5617 5622 5627 5630 5633 5638 5642 5646 5653 5659 5664 5669 5674 5678 5683 5687 5692 5696 5701 5705 5709 5713 5717 5721 5725 5729 5732 5735 5738 5741 5743 5745 5746 5748 5749 5750 5751 5751 5752 5751 5751 5750 5749 5748 5747 5745 5743 5741 5739
5609 5613 5619 5622 5625 5630 5633 5638 5645 5650 5655 5659 5664 5668 5673 5677 5682 5686 5690 5695 5699 5703 5707 5711 5715 5719 5722 5725 5728 5731 5733 5735 5737 5738 5739 5740 5741 5742 5742 5741 5741 5740 5739 5738 5736 5735 5733 5731 5729
5603 5607 5611 5614 5617 5621 5625 5630 5636 5641 5646 5650 5654 5658 5663 5667 5671 5676 5680 5684 5688 5692 5696 5701 5705 5709 5712 5715 5718 5721 5723 5725 5727 5728 5729 5730 5731 5731 5731 5731 5731 5730 5729 5728 5726 5724 5722 5720 5718
5596 5600 5603 5607 5610 5615 5618 5625 5628 5633 5637 5641 5645 5649 5653 5657 5661 5665 5669 5673 5678 5682 5686 5690 5694 5698 5702 5705 5708 5710 5713 5715 5716 5718 5719 5720 5721 5721 5721 5721 5720 5719 5718 5717 5715 5714 5712 5710 5708
5589 5593 5597 5601 5604 5607 5612 5619 5620 5624 5628 5631 5635 5639 5643 5647 5651 5655 5659 5663 5667 5671 5675 5679 5684 5688 5691 5694 5697 5700 5702 5704 5706 5707 5708 5709 5710 5710 5710 5710 5709 5708 5707 5706 5704 5703 5701 5700 5698